Location: Esp�n
(42.4593°N, 0.2047°W)
Time: 10:57:08
(UTC+00:00)

Cosmos 1356 Rocket - Pass Details

Date: 07 June 2020
Orbit: 543 x 598 km, 81.2° (Epoch: 10 July)

Event Time Altitude Azimuth Distance (km) Brightness Sun altitude
Rises 00:08:02 0° 346° (NNW) 2,817 8.2 -24.7°
Reaches altitude 10° 00:10:14 10° 344° (NNW) 1,920 7.0 -24.7°
Enters shadow 00:14:01 60° 297° (WNW) 684 3.8 -24.7°
